Regional Weather Roundup
Issued by NWS Sterling, VA

Current Version | Previous Version | Graphics & Text | Print | Product List | Glossary On
Versions: 1 2 3 4 5 6 7 8 9 10 11 12 13 14 15 16 17 18 19 20 21 22 23 24 25 26 27 28 29 30 31 32 33 34 35 36 37 38 39 40 41 42 43 44 45 46 47 48 49 50
000
ASUS41 KLWX 260612
RWRLWX

REGIONAL WEATHER ROUNDUP
NATIONAL WEATHER SERVICE BALTIMORE MD/WASHINGTON DC
200 AM EDT SAT SEP 26 2020

Note: "FAIR" indicates few or no clouds below 12,000 feet
with no significant weather and/or obstructions to visibility.
 TC=TEMPERATURE CELSIUS

 * =Non NWS site. Station does not report precipitation (e.g. rain,
    snow, etc.), thunder, or fog.

DCZ001-MDZ009-015-VAZ040>042-051-053>054-260700-
WASHINGTON METRO

CITY           SKY/WX    TMP DP  RH WIND       PRES   REMARKS
WASHINGTON NAT LGT RAIN  63  61  93 CALM      30.08S FOG
DULLES         LGT RAIN  61  60  97 CALM      30.08S FOG
ANDREWS AFB    DRIZZLE   61  61 100 E3        30.06F
FT BELVOIR     DRIZZLE   62  61  95 CALM      30.07S FOG
QUANTICO       LGT RAIN  62  61  96 N5        30.07F FOG
COLLEGE PARK*  CLOUDY    60  58  94 CALM      30.07F
LEESBURG*      CLOUDY    54  54 100 CALM      30.10S
MANASSAS*      LGT RAIN  61  60  97 CALM      30.07F
GAITHERSBURG*  LGT RAIN  61  60  97 SW3       30.09S FOG

$$

MDZ006>007-011-014-260700-
BALTIMORE METRO

CITY           SKY/WX    TMP DP  RH WIND       PRES   REMARKS
BWI AIRPORT    LGT RAIN  63  61  93 CALM      30.07F FOG
ANNAPOLIS      HVY RAIN  62  62 100 S3        30.07F FOG
ABERDEEN*      LGT RAIN  63  61  94 SE3       30.08S FOG
FORT MEADE*    CLOUDY    61  61 100 CALM      30.10F

$$

MDZ012-015-019>023-260700-
MARYLAND EASTERN SHORE

CITY           SKY/WX    TMP DP  RH WIND       PRES   REMARKS
OCEAN CITY     CLOUDY    68  62  81 SE12      30.06F
SALISBURY      CLOUDY    65  60  84 E3        30.06F
BAY BRIDGE AP* RAIN      61 N/A N/A CALM      30.07F
CAMBRIDGE*     CLOUDY    63  63 100 NE7       30.05F
EASTON*        RAIN      62  61  96 NE3       30.10F

$$

MDZ017>025-260700-
SOUTHERN MARYLAND

CITY           SKY/WX    TMP DP  RH WIND       PRES   REMARKS
PATUXENT RIVER CLOUDY    64  61  90 E5        30.05S
ST INIGOES     CLOUDY    63  63 100 CALM      30.03F
LEONARDTOWN*   CLOUDY    61  59  94 CALM      30.06F

$$

MDZ003>005-260700-
NORTH CENTRAL MARYLAND

CITY           SKY/WX    TMP DP  RH WIND       PRES   REMARKS
FREDERICK*     RAIN      61  61 100 CALM      30.09S
HAGERSTOWN APT CLOUDY    63  59  87 E3        30.08F
WESTMINSTER*   LGT RAIN  64  63  94 CALM      30.09S

$$

MDZ501>502-260700-
WESTERN MARYLAND

CITY           SKY/WX    TMP DP  RH WIND       PRES   REMARKS
OAKLAND*       CLOUDY    54  54 100 SE7       30.08F
CUMBERLAND*    MOCLDY    58  56  92 NW6       30.10S

$$

VAZ025>031-260700-
SHENANDOAH VALLEY

CITY           SKY/WX    TMP DP  RH WIND       PRES   REMARKS
WINCHESTER*    CLOUDY    59  59 100 E3        30.06S FOG
FRONT ROYAL*   CLOUDY   N/A N/A N/A CALM      30.07R
LURAY*         CLOUDY    61  61 100 CALM      30.07S
NEW MARKET*    NOT AVBL
STAUNTON*      CLOUDY    59  58  99 CALM      30.09S
WAYNESBORO*    CLOUDY    58  58  99 CALM      30.08S

$$

WVZ021-048>050-054>055-260700-
EASTERN WEST VIRGINIA PANHANDLE

CITY           SKY/WX    TMP DP  RH WIND       PRES   REMARKS
MARTINSBURG    CLOUDY    61  60  97 CALM      30.07F
PETERSBURG*    CLOUDY    62  61  97 CALM      30.06S

$$

VAZ036>039-050-260700-
CENTRAL FOOTHILLS

CITY           SKY/WX    TMP DP  RH WIND       PRES   REMARKS
CHARLOTTESVILL LGT RAIN  63  60  90 NE5       30.05F
CULPEPER*      CLOUDY    63  61  94 CALM      30.07F
ORANGE*        CLOUDY    59  59 100 NE3       30.06F
GORDONSVILLE*  CLOUDY    61  61 100 CALM      30.06S
WARRENTON*     CLOUDY    62  60  91 NE3       30.07S

$$

VAZ055>057-260700-
NORTH AND CENTRAL PIEDMONT

CITY           SKY/WX    TMP DP  RH WIND       PRES   REMARKS
FREDERICKSBRG* HVY RAIN  61  61 100 CALM      30.05F
STAFFORD*      DRIZZLE   61  61 100 CALM      30.10F

$$

NCZ024-NYZ072-PAZ021-071-VAZ022-071-260700-
OTHER REGIONAL OBSERVATIONS

CITY           SKY/WX    TMP DP  RH WIND       PRES   REMARKS
NEW YORK CITY  MOCLDY    66  60  81 VRB3      30.13R
PHILADELPHIA   MOCLDY    65  61  87 CALM      30.10S
PITTSBURGH     CLEAR     58  52  80 CALM      30.00F
ROANOKE        CLOUDY    61  60  97 CALM      30.07F
RICHMOND       LGT RAIN  62  61  96 NW7       30.04S FOG
RALEIGH        FOG       67  66  97 N7        29.99F VSB 1

$$

ANZ530>537-260700-
MARINE OBSERVATIONS

STATION/POSITION TIME  TEMP    WIND        PRES
                       AIR SEA DIR/SP/G
                 (UTC) (F)     (DEG/KT/KT) (MB)
THOMAS PT LIGHT  0600   62 70  350/  2/  4 1019.0F
TOLCHESTER       0530   61 70  120/  2/  5 1018.8F
GOOSES REEF      0554   63 70   70/  6/  6   N/A
COVE POINT       0530           50/  6/  9 1018.2F
BALT HARBOR      0530   64 74  170/  6/  8 1018.2R
BALT KEY BRIDGE  0530   63     160/  9/ 11 1018.5S
WASH DC CHANNEL  0530   62 69  130/  2/  3 1018.6F
DAHLGREN         0530   62 69   CALM  /  5 1017.1F
LEWISETTA        0530   68 67  110/  5/  5 1017.2F
SOLOMONS ISLAND  0530   63 71   20/  3/  5 1017.6R
PINEY POINT      0530           80/  7/ 10   N/A
CAMBRIDGE PIER   0530   63 69  360/  5/  6 1018.1F
BISHOPS HEAD     0530   67 68  120/ 11/ 15 1017.0F

$$




USA.gov is the U.S. government's official web portal to all federal, state and local government web resources and services.